Location: Brodeslavy
(49.9527°N, 13.5567°E)
Time: 15:40:43
(UTC+00:00)

Cosmos 1300 Rocket - Pass Details

Date: 17 June 2025
Orbit: 596 x 619 km, 82.5° (Epoch: 20 July)

Event Time Altitude Azimuth Distance (km) Brightness Sun altitude
Rises 23:16:21 0° 344° (NNW) 2,905 8.4 -16.6°
Reaches altitude 10° 23:18:40 10° 337° (NNW) 1,996 7.2 -16.6°
Maximum altitude 23:22:49 41° 268° (W) 899 4.3 -16.6°
Enters shadow 23:24:43 27° 216° (SW) 1,211 4.6 -16.5°
